Location: Madrid
(40.4000°N, 3.6830°W)
Time: 09:02:07
(UTC+01:00)

ISS - Pass Details

Date: 16 November 2017
Orbit: 402 x 407 km, 51.6° (Epoch: 21 November)

Event Time Altitude Azimuth Distance (km) Brightness Sun altitude
Exits shadow 07:10:50 15° 292° (WNW) 1,195 -2.1 -10.0°
Maximum altitude 07:13:18 46° 222° (SW) 552 -3.4 -9.5°
Drops below altitude 10° 07:16:25 10° 148° (SSE) 1,445 -0.2 -9.0°
Sets 07:18:32 0° 142° (SE) 2,301 1.0 -8.6°
